Location: *
(43.9905°S, 176.4941°W)
Time: 06:20:10
(UTC+00:00)

Cosmos 1943 Rocket - Pass Details

Date: 08 December 2019
Orbit: 812 x 844 km, 71.0° (Epoch: 19 January)

Event Time Altitude Azimuth Distance (km) Brightness Sun altitude
Exits shadow 08:58:13 20° 51° (NE) 1,836 3.4 -14.0°
Maximum altitude 09:00:04 23° 79° (ENE) 1,675 3.3 -14.2°
Drops below altitude 10° 09:04:21 10° 129° (SE) 2,431 4.6 -14.6°
Sets 09:07:14 0° 143° (SE) 3,371 5.6 -14.9°
